Weather History for Alexander City, AL

Change the Weather History Date:

Friday, March 1, 2013

  Actual Average (KAUO) Record (KAUO)
Temperature  
Mean Temperature 45 °F -  
Max Temperature 51 °F - 78 °F (1962)
Min Temperature 39 °F - 22 °F (1968)
Degree Days  
Heating Degree Days 20    
Month to date heating degree days  
Since 1 July heating degree days  
Moisture  
Dew Point 27 °F    
Average Humidity 52    
Maximum Humidity 66    
Minimum Humidity 34    
Precipitation  
Precipitation 0.00 in - 1.33 in (1983)
Month to date precipitation  
Year to date precipitation  
Sea Level Pressure  
Sea Level Pressure 30.03 in    
Wind  
Wind Speed 6 mph (NW)    
Max Wind Speed 15 mph    
Max Gust Speed 21 mph    
Visibility 10 miles    
Events      
T = Trace of Precipitation, MM = Missing Value Source: NWS Daily Summary

Daily Weather History Graph

Daily Weather History Graph

Search for Another Location

Airport:

Trip Planner

Search our weather history database for the weather conditions in past years. The results will help you decide how hot, cold, wet, or windy it might be!

Date:

Astronomy

Mar. 01, 2013 Rise Set
Actual Time 6:11 AM CST 5:41 PM CST
Civil Twilight 5:46 AM CST 6:06 PM CST
Nautical Twilight 5:18 AM CST 6:34 PM CST
Astronomical Twilight 4:49 AM CST 7:03 PM CST
Moon 9:56 PM CST (3/1) 8:13 AM CST (3/1)
Length of Visible Light 12h 19m
Length of Day
11h 29m
Waning Gibbous, 83% of the Moon is Illuminated
Mar 1
Waning Gibbous
Mar 4
Last Quarter
Mar 11
New
Mar 19
First Quarter
Mar 27
Full

Hourly Weather History & Observations

Time (CST) Temp. Windchill Dew Point Humidity Pressure Visibility Wind Dir Wind Speed Gust Speed Precip Events Conditions
12:15 AM 39.6 °F 37.4 °F 29.1 °F 66% 30.03 in 10.0 mi West 3.5 mph - N/A   Overcast
12:35 AM 39.6 °F 37.4 °F 28.8 °F 65% 30.04 in 10.0 mi West 3.5 mph - N/A   Overcast
12:55 AM 39.6 °F 37.4 °F 28.8 °F 65% 30.04 in 10.0 mi West 3.5 mph - N/A   Overcast
1:15 AM 39.6 °F - 28.8 °F 65% 30.04 in 10.0 mi Calm Calm - N/A   Overcast
1:35 AM 39.6 °F - 28.8 °F 65% 30.04 in 10.0 mi Calm Calm - N/A   Overcast
1:55 AM 39.6 °F 37.4 °F 28.4 °F 64% 30.03 in 10.0 mi WNW 3.5 mph - N/A   Overcast
2:15 AM 39.6 °F 36.3 °F 27.9 °F 63% 30.02 in 10.0 mi WNW 4.6 mph - N/A   Overcast
2:35 AM 39.6 °F 37.4 °F 27.3 °F 62% 30.02 in 10.0 mi NW 3.5 mph - N/A   Overcast
2:55 AM 39.6 °F 36.3 °F 27.3 °F 62% 30.02 in 10.0 mi WNW 4.6 mph - N/A   Overcast
3:15 AM 39.6 °F 35.4 °F 27.3 °F 62% 30.03 in 10.0 mi NW 5.8 mph - N/A   Overcast
3:35 AM 39.9 °F 36.7 °F 27.1 °F 60% 30.02 in 10.0 mi NW 4.6 mph - N/A   Overcast
3:55 AM 39.7 °F 34.3 °F 27.0 °F 60% 30.02 in 10.0 mi NW 8.1 mph - N/A   Overcast
4:15 AM 39.7 °F 36.5 °F 27.0 °F 60% 30.02 in 10.0 mi NNW 4.6 mph - N/A   Overcast
4:35 AM 39.6 °F 34.0 °F 27.1 °F 61% 30.02 in 10.0 mi North 8.1 mph - N/A   Overcast
4:55 AM 39.6 °F 34.0 °F 26.6 °F 60% 30.02 in 10.0 mi NW 8.1 mph - N/A   Overcast
5:15 AM 39.6 °F 34.0 °F 26.2 °F 59% 30.03 in 10.0 mi NNW 8.1 mph - N/A   Overcast
5:35 AM 39.6 °F 33.5 °F 26.2 °F 59% 30.03 in 10.0 mi NNW 9.2 mph - N/A   Overcast
5:55 AM 39.6 °F 33.5 °F 26.1 °F 58% 30.03 in 10.0 mi NNW 9.2 mph - N/A   Overcast
6:15 AM 39.6 °F 34.7 °F 26.1 °F 58% 30.04 in 10.0 mi NW 6.9 mph - N/A   Overcast
6:35 AM 39.6 °F 34.7 °F 25.7 °F 58% 30.05 in 10.0 mi NNW 6.9 mph - N/A   Overcast
6:55 AM 39.6 °F 37.4 °F 25.9 °F 58% 30.05 in 10.0 mi North 3.5 mph - N/A   Overcast
7:15 AM 41.0 °F 38.0 °F 26.2 °F 56% 30.06 in 10.0 mi NNW 4.6 mph - N/A   Overcast
7:35 AM 41.0 °F 37.1 °F 25.7 °F 55% 30.06 in 10.0 mi North 5.8 mph - N/A   Overcast
7:55 AM 42.1 °F 37.7 °F 25.7 °F 52% 30.06 in 10.0 mi NNW 6.9 mph - N/A   Overcast
8:15 AM 42.4 °F 37.5 °F 25.5 °F 51% 30.06 in 10.0 mi West 8.1 mph - N/A   Scattered Clouds
8:35 AM 43.7 °F 38.1 °F 26.1 °F 50% 30.06 in 10.0 mi West 10.4 mph - N/A   Clear
9:15 AM 43.9 °F 39.9 °F 26.1 °F 50% 30.06 in 10.0 mi NNW 6.9 mph - N/A   Overcast
9:35 AM 44.8 °F 39.0 °F 26.1 °F 48% 30.06 in 10.0 mi NNW 11.5 mph 16.1 mph N/A   Overcast
10:15 AM 47.3 °F - 28.6 °F 48% 30.06 in 10.0 mi West 9.2 mph - N/A   Overcast
10:35 AM 48.9 °F - 27.5 °F 43% 30.06 in 10.0 mi NNW 5.8 mph - N/A   Mostly Cloudy
11:15 AM 49.6 °F - 26.6 °F 41% 30.04 in 10.0 mi WNW 8.1 mph - N/A   Mostly Cloudy
11:35 AM 48.7 °F - 27.0 °F 43% 30.04 in 10.0 mi WNW 8.1 mph - N/A   Mostly Cloudy
11:55 AM 49.6 °F - 25.2 °F 38% 30.04 in 10.0 mi WNW 8.1 mph - N/A   Mostly Cloudy
12:15 PM 49.6 °F - 25.2 °F 38% 30.04 in 10.0 mi West 15.0 mph 19.6 mph N/A   Overcast
12:35 PM 49.6 °F - 25.0 °F 38% 30.02 in 10.0 mi West 8.1 mph 16.1 mph N/A   Overcast
12:55 PM 49.8 °F - 23.2 °F 35% 30.02 in 10.0 mi West 10.4 mph 20.7 mph N/A   Overcast
1:15 PM 49.6 °F - 26.1 °F 40% 30.01 in 10.0 mi NNW 10.4 mph - N/A   Mostly Cloudy
1:35 PM 49.6 °F - 25.3 °F 39% 30.00 in 10.0 mi WNW 12.7 mph 17.3 mph N/A   Mostly Cloudy
1:55 PM 51.4 °F - 24.1 °F 34% 30.00 in 10.0 mi West 11.5 mph 18.4 mph N/A   Scattered Clouds
2:15 PM 50.7 °F - 24.3 °F 36% 29.99 in 10.0 mi NW 12.7 mph 18.4 mph N/A   Mostly Cloudy
2:35 PM 50.4 °F - 22.6 °F 34% 29.99 in 10.0 mi West 13.8 mph 19.6 mph N/A   Mostly Cloudy
2:55 PM 49.8 °F - 24.3 °F 37% 29.99 in 10.0 mi WNW 10.4 mph 16.1 mph N/A   Mostly Cloudy
3:15 PM 49.6 °F - 25.2 °F 38% 30.01 in 10.0 mi WNW 9.2 mph 18.4 mph N/A   Mostly Cloudy
3:35 PM 49.6 °F - 26.1 °F 40% 30.01 in 10.0 mi WNW 11.5 mph 17.3 mph N/A   Overcast
3:55 PM 47.7 °F - 24.6 °F 41% 30.01 in 10.0 mi WNW 8.1 mph - N/A   Overcast
4:15 PM 47.3 °F - 24.6 °F 41% 30.00 in 10.0 mi West 9.2 mph 19.6 mph N/A   Overcast
4:35 PM 49.6 °F - 26.8 °F 41% 30.01 in 10.0 mi NNW 8.1 mph - N/A   Overcast
4:55 PM 47.3 °F - 25.3 °F 42% 30.01 in 10.0 mi NW 10.4 mph 20.7 mph N/A   Overcast
5:15 PM 47.3 °F - 25.7 °F 43% 30.01 in 10.0 mi NW 5.8 mph - N/A   Overcast
5:35 PM 45.1 °F 42.0 °F 25.2 °F 46% 30.01 in 10.0 mi NW 5.8 mph - N/A   Overcast
5:55 PM 44.6 °F 42.2 °F 24.8 °F 46% 30.02 in 10.0 mi NW 4.6 mph - N/A   Overcast
6:15 PM 44.6 °F 42.2 °F 25.3 °F 47% 30.03 in 10.0 mi WNW 4.6 mph - N/A   Overcast
6:35 PM 44.6 °F 41.4 °F 26.2 °F 49% 30.04 in 10.0 mi NW 5.8 mph - N/A   Overcast
6:55 PM 43.7 °F 38.1 °F 25.9 °F 50% 30.04 in 10.0 mi WNW 10.4 mph - N/A   Overcast
7:15 PM 43.3 °F 38.6 °F 25.9 °F 50% 30.05 in 10.0 mi WNW 8.1 mph - N/A   Overcast
7:35 PM 43.3 °F 37.2 °F 26.2 °F 51% 30.04 in 10.0 mi NW 11.5 mph 16.1 mph N/A   Overcast
7:55 PM 42.8 °F 38.6 °F 25.9 °F 51% 30.05 in 10.0 mi NW 6.9 mph - N/A   Overcast
8:15 PM 42.1 °F 37.1 °F 25.9 °F 53% 30.06 in 10.0 mi NW 8.1 mph - N/A   Overcast
8:35 PM 42.1 °F 37.7 °F 26.6 °F 54% 30.06 in 10.0 mi WNW 6.9 mph - N/A   Overcast
8:55 PM 41.0 °F 37.1 °F 26.6 °F 57% 30.06 in 10.0 mi West 5.8 mph - N/A   Mostly Cloudy
9:15 PM 41.0 °F 38.0 °F 27.7 °F 59% 30.06 in 10.0 mi WNW 4.6 mph - N/A   Overcast
9:35 PM 41.0 °F 36.4 °F 27.9 °F 60% 30.06 in 10.0 mi WNW 6.9 mph - N/A   Overcast
9:55 PM 41.0 °F 35.8 °F 27.5 °F 59% 30.06 in 10.0 mi WNW 8.1 mph - N/A   Overcast
10:15 PM 41.0 °F 38.0 °F 27.9 °F 60% 30.06 in 10.0 mi WNW 4.6 mph - N/A   Overcast
10:35 PM 41.0 °F 36.4 °F 28.4 °F 61% 30.06 in 10.0 mi WNW 6.9 mph - N/A   Overcast
10:55 PM 40.5 °F 35.1 °F 29.1 °F 64% 30.05 in 10.0 mi NW 8.1 mph - N/A   Overcast
11:15 PM 40.1 °F 34.1 °F 29.3 °F 65% 30.05 in 10.0 mi WNW 9.2 mph - N/A   Overcast
11:35 PM 39.6 °F 36.3 °F 29.1 °F 66% 30.05 in 10.0 mi WNW 4.6 mph - N/A   Overcast
11:55 PM 39.6 °F 34.7 °F 28.9 °F 66% 30.06 in 10.0 mi WNW 6.9 mph - N/A   Overcast